When you browse on this site, cookies collect data to enhance your experience and personalize the content and advertising you see.
Visit our Privacy Policy to learn more. By continuing to use the site, you agree to this use of cookies and data.
  • In United Kingdom
  • List of Countries
  • For 7 days
  • Water Temperature
  • Weather Map
  • Weather Widgets
  • user-avatar
    Login

    Hourly Weather Mingachevir

    Today, 22 August, Thursday

    Time Temperature Precipitation Wind Pressure Humidity
    00:00 +26°C° 0 mm 3 mps 751 mmHg 35%
    01:00 +25°C° 0 mm 2 mps 751 mmHg 38%
    02:00 +24°C° 0 mm 2 mps 751 mmHg 40%
    03:00 +24°C° 0 mm 2 mps 751 mmHg 44%
    04:00 +24°C° 0 mm 1 mps 751 mmHg 44%
    05:00 +24°C° 0 mm 1 mps 751 mmHg 43%
    06:00 +23°C° 0 mm 0 mps 751 mmHg 43%
    07:00 +27°C° 0 mm 1 mps 751 mmHg 37%
    08:00 +30°C° 0 mm 2 mps 751 mmHg 32%
    09:00 +34°C° 0 mm 3 mps 751 mmHg 25%
    10:00 +36°C° 0 mm 4 mps 750 mmHg 22%
    11:00 +37°C° 0 mm 4 mps 750 mmHg 19%
    12:00 +40°C° 0 mm 5 mps 750 mmHg 16%
    13:00 +41°C° 0 mm 5 mps 749 mmHg 15%
    14:00 +42°C° 0 mm 5 mps 749 mmHg 14%
    15:00 +42°C° 0 mm 6 mps 749 mmHg 12%
    16:00 +41°C° 0 mm 6 mps 748 mmHg 14%
    17:00 +40°C° 0 mm 6 mps 748 mmHg 15%
    18:00 +39°C° 0 mm 6 mps 748 mmHg 16%
    19:00 +36°C° 0 mm 5 mps 749 mmHg 20%
    20:00 +33°C° 0 mm 5 mps 749 mmHg 25%
    21:00 +29°C° 0 mm 4 mps 750 mmHg 29%
    22:00 +28°C° 0 mm 4 mps 750 mmHg 31%
    23:00 +28°C° 0 mm 4 mps 750 mmHg 33%

    Tomorrow, 23 August, Friday

    Time Temperature Precipitation Wind Pressure Humidity
    00:00 +27°C° 0 mm 3 mps 750 mmHg 36%
    01:00 +26°C° 0 mm 3 mps 750 mmHg 38%
    02:00 +26°C° 0 mm 3 mps 750 mmHg 40%
    03:00 +25°C° 0 mm 2 mps 751 mmHg 43%
    04:00 +25°C° 0 mm 2 mps 751 mmHg 43%
    05:00 +26°C° 0 mm 2 mps 751 mmHg 43%
    06:00 +26°C° 0 mm 2 mps 750 mmHg 44%
    07:00 +28°C° 0 mm 2 mps 751 mmHg 39%
    08:00 +31°C° 0 mm 3 mps 751 mmHg 33%
    09:00 +35°C° 0 mm 3 mps 751 mmHg 28%
    10:00 +37°C° 0 mm 4 mps 750 mmHg 25%
    11:00 +39°C° 0 mm 5 mps 750 mmHg 22%
    12:00 +41°C° 0 mm 6 mps 750 mmHg 19%
    13:00 +41°C° 0 mm 7 mps 749 mmHg 19%
    14:00 +43°C° 0 mm 7 mps 749 mmHg 18%
    15:00 +43°C° 0 mm 7 mps 749 mmHg 18%
    16:00 +41°C° 0 mm 7 mps 749 mmHg 17%
    17:00 +41°C° 0 mm 7 mps 749 mmHg 17%
    18:00 +40°C° 0 mm 7 mps 749 mmHg 16%
    19:00 +38°C° 0 mm 6 mps 749 mmHg 19%
    20:00 +34°C° 0 mm 5 mps 750 mmHg 23%
    21:00 +30°C° 0 mm 4 mps 750 mmHg 26%
    22:00 +29°C° 0 mm 4 mps 750 mmHg 29%
    23:00 +28°C° 0 mm 3 mps 750 mmHg 32%

    Day after tomorrow, 24 August, Saturday

    Time Temperature Precipitation Wind Pressure Humidity
    00:00 +28°C° 0 mm 2 mps 750 mmHg 35%
    01:00 +27°C° 0 mm 2 mps 750 mmHg 39%
    02:00 +26°C° 0 mm 2 mps 750 mmHg 43%
    03:00 +26°C° 0 mm 2 mps 750 mmHg 47%
    04:00 +26°C° 0 mm 1 mps 750 mmHg 49%
    05:00 +26°C° 0 mm 1 mps 750 mmHg 51%
    06:00 +26°C° 0 mm 1 mps 750 mmHg 52%
    07:00 +28°C° 0 mm 1 mps 751 mmHg 47%
    08:00 +31°C° 0 mm 2 mps 751 mmHg 41%
    09:00 +34°C° 0 mm 2 mps 751 mmHg 35%
    10:00 +36°C° 0 mm 3 mps 750 mmHg 30%
    11:00 +38°C° 0 mm 4 mps 750 mmHg 25%
    12:00 +41°C° 0 mm 5 mps 750 mmHg 19%
    13:00 +42°C° 0 mm 5 mps 749 mmHg 18%
    14:00 +44°C° 0 mm 6 mps 749 mmHg 17%
    15:00 +45°C° 0 mm 6 mps 749 mmHg 15%
    16:00 +44°C° 0 mm 6 mps 749 mmHg 16%
    17:00 +42°C° 0 mm 6 mps 749 mmHg 16%
    18:00 +40°C° 0 mm 6 mps 749 mmHg 17%
    19:00 +37°C° 0 mm 5 mps 750 mmHg 23%
    20:00 +34°C° 0 mm 4 mps 751 mmHg 29%
    21:00 +30°C° 0 mm 4 mps 752 mmHg 35%
    22:00 +29°C° 0 mm 3 mps 752 mmHg 38%
    23:00 +28°C° 0 mm 2 mps 751 mmHg 42%

    25 August, Sunday

    Time Temperature Precipitation Wind Pressure Humidity
    00:00 +28°C° 0 mm 1 mps 751 mmHg 45%
    01:00 +27°C° 0 mm 1 mps 751 mmHg 46%
    02:00 +27°C° 0 mm 1 mps 751 mmHg 47%
    03:00 +27°C° 0 mm 1 mps 751 mmHg 48%
    04:00 +27°C° 0 mm 2 mps 751 mmHg 48%
    05:00 +27°C° 0 mm 2 mps 751 mmHg 48%
    06:00 +27°C° 0 mm 2 mps 751 mmHg 48%
    07:00 +29°C° 0 mm 2 mps 751 mmHg 42%
    08:00 +33°C° 0 mm 3 mps 751 mmHg 36%
    09:00 +35°C° 0 mm 3 mps 751 mmHg 30%
    10:00 +37°C° 0 mm 3 mps 751 mmHg 25%
    11:00 +38°C° 0 mm 3 mps 750 mmHg 21%
    12:00 +40°C° 0 mm 3 mps 750 mmHg 17%
    13:00 +40°C° 0 mm 3 mps 750 mmHg 17%
    14:00 +42°C° 0 mm 4 mps 749 mmHg 16%
    15:00 +43°C° 0 mm 4 mps 749 mmHg 15%
    16:00 +41°C° 0 mm 5 mps 749 mmHg 17%
    17:00 +40°C° 0 mm 5 mps 749 mmHg 18%
    18:00 +39°C° 0 mm 6 mps 749 mmHg 20%
    19:00 +35°C° 0 mm 5 mps 750 mmHg 23%
    20:00 +33°C° 0 mm 5 mps 750 mmHg 27%
    21:00 +29°C° 0 mm 4 mps 751 mmHg 31%
    22:00 +28°C° 0 mm 4 mps 751 mmHg 35%
    23:00 +27°C° 0 mm 3 mps 751 mmHg 39%

    26 August, Monday

    Time Temperature Precipitation Wind Pressure Humidity
    00:00 +26°C° 0 mm 3 mps 751 mmHg 42%
    01:00 +25°C° 0 mm 2 mps 751 mmHg 45%
    02:00 +25°C° 0 mm 2 mps 751 mmHg 47%
    03:00 +24°C° 0 mm 2 mps 751 mmHg 50%
    04:00 +24°C° 0 mm 1 mps 751 mmHg 50%
    05:00 +25°C° 0 mm 1 mps 751 mmHg 51%
    06:00 +23°C° 0 mm 0 mps 751 mmHg 51%
    07:00 +27°C° 0.1 mm 1 mps 751 mmHg 45%
    08:00 +29°C° 0.1 mm 1 mps 751 mmHg 38%
    09:00 +31°C° 0.1 mm 1 mps 752 mmHg 32%
    10:00 +32°C° 0.1 mm 2 mps 751 mmHg 28%
    11:00 +34°C° 0.1 mm 2 mps 751 mmHg 24%
    12:00 +36°C° 0.1 mm 3 mps 751 mmHg 20%
    13:00 +36°C° 0.2 mm 3 mps 751 mmHg 20%
    14:00 +37°C° 0.2 mm 3 mps 750 mmHg 20%
    15:00 +37°C° 0.2 mm 3 mps 750 mmHg 20%
    16:00 +37°C° 0 mm 4 mps 751 mmHg 21%
    17:00 +36°C° 0 mm 4 mps 751 mmHg 22%
    18:00 +35°C° 0 mm 4 mps 751 mmHg 23%
    19:00 +33°C° 0 mm 6 mps 752 mmHg 30%
    20:00 +32°C° 0 mm 7 mps 753 mmHg 38%
    21:00 +29°C° 0 mm 9 mps 754 mmHg 46%
    22:00 +28°C° 0 mm 8 mps 754 mmHg 47%
    23:00 +28°C° 0 mm 7 mps 754 mmHg 48%

    27 August, Tuesday

    Time Temperature Precipitation Wind Pressure Humidity
    00:00 +28°C° 0 mm 5 mps 754 mmHg 49%
    01:00 +27°C° 0 mm 5 mps 754 mmHg 52%
    02:00 +27°C° 0 mm 5 mps 754 mmHg 54%
    03:00 +26°C° 0 mm 4 mps 753 mmHg 56%
    04:00 +26°C° 0 mm 5 mps 753 mmHg 58%
    05:00 +26°C° 0 mm 6 mps 754 mmHg 61%
    06:00 +24°C° 0 mm 6 mps 754 mmHg 63%
    07:00 +27°C° 0 mm 7 mps 754 mmHg 58%
    08:00 +28°C° 0 mm 8 mps 754 mmHg 52%
    09:00 +31°C° 0 mm 9 mps 753 mmHg 46%
    10:00 +32°C° 0.2 mm 8 mps 753 mmHg 42%
    11:00 +33°C° 0.2 mm 8 mps 753 mmHg 39%
    12:00 +34°C° 0.2 mm 8 mps 752 mmHg 35%
    13:00 +35°C° 0.3 mm 7 mps 752 mmHg 34%
    14:00 +35°C° 0.3 mm 7 mps 751 mmHg 33%
    15:00 +35°C° 0.3 mm 7 mps 751 mmHg 32%
    16:00 +34°C° 0.2 mm 7 mps 751 mmHg 35%
    17:00 +33°C° 0.2 mm 7 mps 751 mmHg 38%
    18:00 +32°C° 0.2 mm 7 mps 751 mmHg 41%
    19:00 +29°C° 0.2 mm 6 mps 751 mmHg 49%
    20:00 +27°C° 0.2 mm 5 mps 751 mmHg 58%
    21:00 +25°C° 0.2 mm 4 mps 751 mmHg 66%
    22:00 +23°C° 0.1 mm 4 mps 751 mmHg 70%
    23:00 +22°C° 0.1 mm 4 mps 751 mmHg 73%
    Show more